User: anonymous   Login
Location: Presov
(49.0000°N, 21.2500°E)
Time: 00:31:13
(UTC+02:00)
Language:

CZ-4C DEB - Orbit

View from above orbital plane
View from above orbital plane
View from above satellite
View from above satellite

Ground track
Ground track

The orbit data is extracted from the following two-line orbital elements,

1 37569U 10038E   24148.13733944  .00006986  00000-0  99467-3 0  9992
2 37569  97.8942 271.8088 0127565 279.1522  79.5273 14.71652838728497
Epoch (UTC): 27 May 2024 03:17:46
Eccentricity: 0.0127565
inclination: 97.8942°
perigee height: 566 km
apogee height: 745 km
right ascension of ascending node: 271.8088°
argument of perigee: 279.1522°
revolutions per day: 14.71652838
mean anomaly at epoch: 79.5273°
orbit number at epoch: 72849

The dashed part of the orbit path shows where the satellite is in the earth's shadow,  

DLR